Retour au catalogue

SL-16 DEB

ActifLEO
NORAD 22224·DEBRIS·🇷🇺 Russia

Lancé Nov 17, 1992 depuis Baikonur Cosmodrome

Loading…

Prochains Passages (prochaines 24 heures)

TLE

FraisSource: Space-Track

Époque: Sep 14, 2026, 13:03 UTC

1 22224U 92076F   26257.54399149  .00000019  00000-0  57523-4 0  9998
2 22224  70.9899  91.1232 0195847 218.1151 140.5965 13.74981658696729

Suivez SL-16 DEB en temps réel avec AllMySat

Download on the App Store